,,,PA_Meas_PMT16A,,PR_Meas_QMR101_102,,RH_Meas_QMH101,,SR_Meas_QMS101,,TA_Meas_QMH101,,GenWind,,GenWind,
date,time,status,PA,status,PR,status,RH,status,SR,status,TA,status,DirAvg,status,SpdAvg,
2010-06-28, 00:00:05,VALID,1009.38,VALID,0,VALID,101.705,VALID,0,VALID,23.8127,VALID,140,VALID,0.747656,
2010-06-28, 00:01:05,VALID,1009.34,VALID,0,VALID,101.682,VALID,0,VALID,23.8109,VALID,158,VALID,0.751562,
2010-06-28, 00:02:05,VALID,1009.31,VALID,0,VALID,101.682,VALID,0,VALID,23.8109,VALID,160,VALID,0.491797,
2010-06-28, 00:03:05,VALID,1009.26,VALID,0,VALID,101.689,VALID,0.105969,VALID,23.8091,VALID,152,VALID,0.455078,
2010-06-28, 00:04:05,VALID,1009.24,VALID,0,VALID,101.674,VALID,0.105969,VALID,23.8286,VALID,120,VALID,0.941797,
2010-06-28, 00:05:05,VALID,1009.25,VALID,0,VALID,101.682,VALID,0,VALID,23.8091,VALID,113,VALID,1.22422,
2010-06-28, 00:06:05,VALID,1009.24,VALID,0,VALID,101.682,VALID,0.105969,VALID,23.8091,VALID,115,VALID,0.974219,
2010-06-28, 00:07:05,VALID,1009.23,VALID,0,VALID,101.697,VALID,0,VALID,23.8286,VALID,126,VALID,1.09687,
2010-06-28, 00:08:05,VALID,1009.22,VALID,0,VALID,101.644,VALID,0.105969,VALID,23.8481,VALID,123,VALID,0.967188,
2010-06-28, 00:09:05,VALID,1009.2,VALID,0,VALID,101.705,VALID,0,VALID,23.8091,VALID,128,VALID,1.10312,
2010-06-28, 00:10:05,VALID,1009.21,VALID,0,VALID,101.72,VALID,0.105969,VALID,23.8091,VALID,135,VALID,1.17383,
2010-06-28, 00:11:05,VALID,1009.23,VALID,0,VALID,101.705,VALID,0,VALID,23.8091,VALID,131,VALID,0.883203,
2010-06-28, 00:12:05,VALID,1009.19,VALID,0,VALID,101.72,VALID,0.105969,VALID,23.8499,VALID,130,VALID,0.598437,
2010-06-28, 00:13:05,VALID,1009.21,VALID,0,VALID,101.705,VALID,0,VALID,23.8304,VALID,100,VALID,1.09102,
2010-06-28, 00:14:05,VALID,1009.19,VALID,0,VALID,101.712,VALID,0,VALID,23.8286,VALID,108,VALID,1.03555,
2010-06-28, 00:15:05,VALID,1009.24,VALID,0,VALID,101.72,VALID,0,VALID,23.8499,VALID,119,VALID,0.829687,
2010-06-28, 00:16:05,VALID,1009.25,VALID,0,VALID,101.735,VALID,0,VALID,23.8286,VALID,95,VALID,0.862891,
2010-06-28, 00:17:05,VALID,1009.29,VALID,0,VALID,101.72,VALID,0.105969,VALID,23.8676,VALID,114,VALID,0.554688,
2010-06-28, 00:18:05,VALID,1009.32,VALID,0,VALID,101.697,VALID,0,VALID,23.8889,VALID,123,VALID,0.913672,
2010-06-28, 00:19:05,VALID,1009.35,VALID,0,VALID,101.697,VALID,0,VALID,23.8481,VALID,119,VALID,0.598828,
2010-06-28, 00:20:05,VALID,1009.39,VALID,0,VALID,101.697,VALID,0,VALID,23.9084,VALID,129,VALID,0.757031,
2010-06-28, 00:21:05,VALID,1009.43,VALID,0,VALID,101.674,VALID,0,VALID,23.8871,VALID,122,VALID,1.29961,
2010-06-28, 00:22:05,VALID,1009.44,VALID,0,VALID,101.72,VALID,0,VALID,23.8676,VALID,125,VALID,1.10781,
2010-06-28, 00:23:05,VALID,1009.46,VALID,0,VALID,101.674,VALID,0,VALID,23.8871,VALID,130,VALID,1.41758,
2010-06-28, 00:24:05,VALID,1009.48,VALID,0,VALID,101.682,VALID,0,VALID,23.9065,VALID,96,VALID,1.44297,
2010-06-28, 00:25:05,VALID,1009.49,VALID,0,VALID,101.674,VALID,0,VALID,23.9084,VALID,103,VALID,1.65781,
2010-06-28, 00:26:05,VALID,1009.47,VALID,0,VALID,101.697,VALID,0.105969,VALID,23.9084,VALID,107,VALID,1.63164,
2010-06-28, 00:27:05,VALID,1009.48,VALID,0,VALID,101.705,VALID,0,VALID,23.8871,VALID,105,VALID,1.85156,
2010-06-28, 00:28:05,VALID,1009.48,VALID,0,VALID,101.689,VALID,0,VALID,23.9278,VALID,90,VALID,1.44297,
2010-06-28, 00:29:05,VALID,1009.45,VALID,0,VALID,101.667,VALID,0,VALID,23.926,VALID,91,VALID,1.64609,
2010-06-28, 00:30:05,VALID,1009.46,VALID,0,VALID,101.697,VALID,0.105969,VALID,23.9473,VALID,75,VALID,0.970312,
2010-06-28, 00:31:05,VALID,1009.42,VALID,0,VALID,101.72,VALID,0,VALID,23.9278,VALID,56,VALID,1.39609,
2010-06-28, 00:32:05,VALID,1009.4,VALID,0,VALID,101.735,VALID,0,VALID,23.8889,VALID,66,VALID,1.28945,
2010-06-28, 00:33:05,VALID,1009.37,VALID,0,VALID,101.773,VALID,0,VALID,23.8694,VALID,91,VALID,1.79453,
2010-06-28, 00:34:05,VALID,1009.37,VALID,0,VALID,101.758,VALID,0,VALID,23.8694,VALID,71,VALID,1.32734,
2010-06-28, 00:35:05,VALID,1009.35,VALID,0,VALID,101.72,VALID,0,VALID,23.8676,VALID,85,VALID,1.22773,
2010-06-28, 00:36:05,VALID,1009.35,VALID,0,VALID,101.712,VALID,0,VALID,23.8889,VALID,100,VALID,1.64492,
2010-06-28, 00:37:05,VALID,1009.32,VALID,0,VALID,101.689,VALID,0,VALID,23.8889,VALID,92,VALID,1.53281,
2010-06-28, 00:38:05,VALID,1009.32,VALID,0,VALID,101.659,VALID,0,VALID,23.9084,VALID,80,VALID,1.49805,
2010-06-28, 00:39:05,VALID,1009.29,VALID,0,VALID,101.682,VALID,0,VALID,23.9084,VALID,105,VALID,1.38672,
2010-06-28, 00:40:05,VALID,1009.28,VALID,0,VALID,101.651,VALID,0,VALID,23.9278,VALID,103,VALID,0.827344,
2010-06-28, 00:41:05,VALID,1009.25,VALID,0,VALID,101.674,VALID,0,VALID,23.9278,VALID,98,VALID,1.86836,
2010-06-28, 00:42:05,VALID,1009.23,VALID,0,VALID,101.667,VALID,0,VALID,23.9278,VALID,83,VALID,1.26836,
2010-06-28, 00:43:05,VALID,1009.2,VALID,0,VALID,101.705,VALID,0,VALID,23.8889,VALID,88,VALID,2.09375,
2010-06-28, 00:44:05,VALID,1009.18,VALID,0,VALID,101.697,VALID,0,VALID,23.8676,VALID,96,VALID,1.18555,
2010-06-28, 00:45:05,VALID,1009.13,VALID,0,VALID,101.705,VALID,0,VALID,23.8889,VALID,78,VALID,1.16211,
2010-06-28, 00:46:05,VALID,1009.12,VALID,0,VALID,101.705,VALID,0,VALID,23.8889,VALID,83,VALID,0.973828,
2010-06-28, 00:47:05,VALID,1009.1,VALID,0,VALID,101.705,VALID,0,VALID,23.8481,VALID,76,VALID,1.14922,
2010-06-28, 00:48:05,VALID,1009.12,VALID,0,VALID,101.697,VALID,0,VALID,23.8694,VALID,62,VALID,1.33633,
2010-06-28, 00:49:05,VALID,1009.08,VALID,0,VALID,101.674,VALID,0,VALID,23.8481,VALID,81,VALID,0.721484,
2010-06-28, 00:50:05,VALID,1009.1,VALID,0,VALID,101.682,VALID,0,VALID,23.8676,VALID,99,VALID,0.739844,
2010-06-28, 00:51:05,VALID,1009.05,VALID,0,VALID,101.644,VALID,0,VALID,23.9084,VALID,106,VALID,0.798828,
2010-06-28, 00:52:05,VALID,1009.04,VALID,0,VALID,101.636,VALID,0,VALID,23.9278,VALID,96,VALID,1.27461,
2010-06-28, 00:53:05,VALID,1009.03,VALID,0,VALID,101.644,VALID,0,VALID,23.9278,VALID,100,VALID,0.86875,
2010-06-28, 00:54:05,VALID,1009.06,VALID,0,VALID,101.613,VALID,0,VALID,23.9473,VALID,90,VALID,1.03555,
2010-06-28, 00:55:05,VALID,1009.03,VALID,0,VALID,101.628,VALID,0,VALID,23.9473,VALID,75,VALID,0.973437,
2010-06-28, 00:56:05,VALID,1009.01,VALID,0,VALID,101.667,VALID,0,VALID,23.9278,VALID,105,VALID,1.06641,
2010-06-28, 00:57:05,VALID,1008.97,VALID,0,VALID,101.651,VALID,0,VALID,23.9473,VALID,101,VALID,0.708984,
2010-06-28, 00:58:05,VALID,1009,VALID,0,VALID,101.613,VALID,0,VALID,23.9473,VALID,84,VALID,0.922656,
2010-06-28, 00:59:05,VALID,1008.96,VALID,0,VALID,101.644,VALID,0,VALID,23.9473,VALID,95,VALID,0.894922,
2010-06-28, 01:00:05,VALID,1008.93,VALID,0,VALID,101.636,VALID,0,VALID,23.9668,VALID,76,VALID,1.17656,
2010-06-28, 01:01:05,VALID,1008.96,VALID,0,VALID,101.659,VALID,0.105969,VALID,23.9455,VALID,59,VALID,0.930859,
2010-06-28, 01:02:05,VALID,1008.94,VALID,0,VALID,101.644,VALID,0.105969,VALID,23.9455,VALID,62,VALID,0.847266,
2010-06-28, 01:03:05,VALID,1008.94,VALID,0,VALID,101.628,VALID,0,VALID,23.9473,VALID,89,VALID,0.480469,
2010-06-28, 01:04:05,VALID,1008.96,VALID,0,VALID,101.628,VALID,0,VALID,23.9473,VALID,89,VALID,0.0253906,
2010-06-28, 01:05:05,VALID,1008.94,VALID,0,VALID,101.636,VALID,0,VALID,23.9668,VALID,89,VALID,0.172656,
2010-06-28, 01:06:05,VALID,1008.95,VALID,0,VALID,101.659,VALID,0,VALID,23.9473,VALID,104,VALID,0.366016,
2010-06-28, 01:07:05,VALID,1008.95,VALID,0,VALID,101.636,VALID,0,VALID,23.9668,VALID,104,VALID,0.417969,
2010-06-28, 01:08:05,VALID,1008.92,VALID,0,VALID,101.628,VALID,0,VALID,23.9473,VALID,104,VALID,0.184766,
2010-06-28, 01:09:05,VALID,1008.94,VALID,0,VALID,101.621,VALID,0.105969,VALID,23.926,VALID,104,VALID,0.198437,
2010-06-28, 01:10:05,VALID,1008.91,VALID,0,VALID,101.621,VALID,0,VALID,23.9668,VALID,104,VALID,0.00546875,
2010-06-28, 01:11:05,VALID,1008.9,VALID,0,VALID,101.598,VALID,0,VALID,23.9455,VALID,104,VALID,0,
2010-06-28, 01:12:05,VALID,1008.87,VALID,0,VALID,101.598,VALID,0,VALID,23.9863,VALID,104,VALID,0.430078,
2010-06-28, 01:13:05,VALID,1008.87,VALID,0,VALID,101.56,VALID,0,VALID,24.004,VALID,165,VALID,0.546094,
2010-06-28, 01:14:05,VALID,1008.84,VALID,0,VALID,101.545,VALID,0,VALID,24.0235,VALID,165,VALID,0.678125,
2010-06-28, 01:15:05,VALID,1008.83,VALID,0,VALID,101.575,VALID,0,VALID,24.0253,VALID,166,VALID,0.541797,
2010-06-28, 01:16:05,VALID,1008.8,VALID,0,VALID,101.583,VALID,0,VALID,24.0253,VALID,184,VALID,0.716406,
2010-06-28, 01:17:05,VALID,1008.74,VALID,0,VALID,101.583,VALID,0,VALID,24.0253,VALID,230,VALID,0.971094,
2010-06-28, 01:18:05,VALID,1008.72,VALID,0,VALID,101.59,VALID,0,VALID,24.004,VALID,226,VALID,0.889453,
2010-06-28, 01:19:05,VALID,1008.71,VALID,0,VALID,101.583,VALID,0,VALID,24.0253,VALID,228,VALID,1.00234,
2010-06-28, 01:20:05,VALID,1008.69,VALID,0,VALID,101.583,VALID,0.105969,VALID,24.0235,VALID,222,VALID,1.0418,
2010-06-28, 01:21:05,VALID,1008.67,VALID,0,VALID,101.59,VALID,0,VALID,24.0448,VALID,218,VALID,0.919531,
2010-06-28, 01:22:05,VALID,1008.67,VALID,0,VALID,101.583,VALID,0,VALID,24.0429,VALID,205,VALID,1.06602,
2010-06-28, 01:23:05,VALID,1008.63,VALID,0,VALID,101.59,VALID,0.105969,VALID,24.0429,VALID,204,VALID,0.916797,
2010-06-28, 01:24:05,VALID,1008.64,VALID,0,VALID,101.575,VALID,0.105969,VALID,24.0216,VALID,191,VALID,0.93125,
2010-06-28, 01:25:05,VALID,1008.62,VALID,0,VALID,101.552,VALID,0,VALID,24.0837,VALID,194,VALID,0.698438,
2010-06-28, 01:26:05,VALID,1008.6,VALID,0,VALID,101.56,VALID,0.105969,VALID,24.0801,VALID,187,VALID,0.866406,
2010-06-28, 01:27:05,VALID,1008.57,VALID,0,VALID,101.567,VALID,0.105969,VALID,24.1032,VALID,183,VALID,0.798828,
2010-06-28, 01:28:05,VALID,1008.53,VALID,0,VALID,101.575,VALID,0,VALID,24.0624,VALID,168,VALID,0.727344,
2010-06-28, 01:29:05,VALID,1008.51,VALID,0,VALID,101.567,VALID,0,VALID,24.1032,VALID,182,VALID,0.894922,
2010-06-28, 01:30:05,VALID,1008.49,VALID,0,VALID,101.537,VALID,0,VALID,24.1209,VALID,174,VALID,1.1418,
2010-06-28, 01:31:05,VALID,1008.47,VALID,0,VALID,101.56,VALID,0,VALID,24.1227,VALID,211,VALID,1.05469,
2010-06-28, 01:32:05,VALID,1008.52,VALID,0,VALID,101.552,VALID,0,VALID,24.1227,VALID,203,VALID,0.91875,
2010-06-28, 01:33:05,VALID,1008.54,VALID,0,VALID,101.567,VALID,0.105969,VALID,24.1014,VALID,202,VALID,1.02539,
2010-06-28, 01:34:05,VALID,1008.53,VALID,0,VALID,101.598,VALID,0.105969,VALID,24.1014,VALID,238,VALID,0.873438,
2010-06-28, 01:35:05,VALID,1008.54,VALID,0,VALID,101.545,VALID,0,VALID,24.1422,VALID,213,VALID,0.746094,
2010-06-28, 01:36:05,VALID,1008.55,VALID,0,VALID,101.583,VALID,0,VALID,24.1209,VALID,209,VALID,0.592188,
2010-06-28, 01:37:05,VALID,1008.56,VALID,0,VALID,101.567,VALID,0,VALID,24.1617,VALID,225,VALID,0.876562,
2010-06-28, 01:38:05,VALID,1008.57,VALID,0,VALID,101.59,VALID,0.105969,VALID,24.1404,VALID,206,VALID,0.798828,
2010-06-28, 01:39:05,VALID,1008.57,VALID,0,VALID,101.575,VALID,0,VALID,24.1599,VALID,210,VALID,0.522656,
2010-06-28, 01:40:05,VALID,1008.61,VALID,0,VALID,101.567,VALID,0,VALID,24.1209,VALID,221,VALID,1.21055,
2010-06-28, 01:41:05,VALID,1008.6,VALID,0,VALID,101.59,VALID,0,VALID,24.1404,VALID,231,VALID,1.25937,
2010-06-28, 01:42:05,VALID,1008.58,VALID,0,VALID,101.583,VALID,0,VALID,24.1209,VALID,207,VALID,1.33711,
2010-06-28, 01:43:05,VALID,1008.6,VALID,0,VALID,101.613,VALID,0,VALID,24.1209,VALID,233,VALID,0.861719,
2010-06-28, 01:44:05,VALID,1008.55,VALID,0,VALID,101.606,VALID,0.105969,VALID,24.1599,VALID,201,VALID,0.980469,
2010-06-28, 01:45:05,VALID,1008.58,VALID,0,VALID,101.598,VALID,0,VALID,24.1599,VALID,222,VALID,1.21133,
2010-06-28, 01:46:05,VALID,1008.55,VALID,0,VALID,101.598,VALID,0,VALID,24.1599,VALID,238,VALID,1.16328,
2010-06-28, 01:47:05,VALID,1008.52,VALID,0,VALID,101.606,VALID,0.105969,VALID,24.2007,VALID,236,VALID,0.494922,
2010-06-28, 01:48:05,VALID,1008.53,VALID,0,VALID,101.583,VALID,0,VALID,24.2202,VALID,236,VALID,0,
2010-06-28, 01:49:05,VALID,1008.5,VALID,0,VALID,101.59,VALID,0,VALID,24.2183,VALID,219,VALID,0.417188,
2010-06-28, 01:50:05,VALID,1008.5,VALID,0,VALID,101.59,VALID,0.105969,VALID,24.1988,VALID,214,VALID,0.972266,
2010-06-28, 01:51:05,VALID,1008.51,VALID,0,VALID,101.621,VALID,0.105969,VALID,24.1988,VALID,216,VALID,0.595312,
2010-06-28, 01:52:05,VALID,1008.53,VALID,0,VALID,101.613,VALID,0,VALID,24.1988,VALID,228,VALID,0.419141,
2010-06-28, 01:53:05,VALID,1008.55,VALID,0,VALID,101.606,VALID,0,VALID,24.2591,VALID,229,VALID,0.275,
2010-06-28, 01:54:05,VALID,1008.58,VALID,0,VALID,101.56,VALID,0,VALID,24.2768,VALID,229,VALID,0.230469,
2010-06-28, 01:55:05,VALID,1008.54,VALID,0,VALID,101.598,VALID,0,VALID,24.2573,VALID,250,VALID,0.630078,
2010-06-28, 01:56:05,VALID,1008.56,VALID,0,VALID,101.606,VALID,0,VALID,24.2378,VALID,249,VALID,0.283984,
2010-06-28, 01:57:05,VALID,1008.57,VALID,0,VALID,101.621,VALID,0,VALID,24.2573,VALID,249,VALID,0.411328,
2010-06-28, 01:58:05,VALID,1008.53,VALID,0,VALID,101.59,VALID,0,VALID,24.2573,VALID,268,VALID,0.151953,
2010-06-28, 01:59:05,VALID,1008.56,VALID,0,VALID,101.606,VALID,0,VALID,24.3176,VALID,278,VALID,0.46875,
2010-06-28, 02:00:05,VALID,1008.56,VALID,0,VALID,101.59,VALID,0,VALID,24.2963,VALID,296,VALID,0.260547,
2010-06-28, 02:01:05,VALID,1008.61,VALID,0,VALID,101.598,VALID,0.105969,VALID,24.2963,VALID,289,VALID,0.430469,
2010-06-28, 02:02:05,VALID,1008.65,VALID,0,VALID,101.606,VALID,0,VALID,24.2963,VALID,301,VALID,0.753906,
2010-06-28, 02:03:05,VALID,1008.67,VALID,0,VALID,101.613,VALID,0,VALID,24.2981,VALID,307,VALID,0.217969,
2010-06-28, 02:04:05,VALID,1008.71,VALID,0,VALID,101.598,VALID,0,VALID,24.2981,VALID,278,VALID,0.771484,
2010-06-28, 02:05:05,VALID,1008.69,VALID,0,VALID,101.636,VALID,0,VALID,24.3176,VALID,252,VALID,1.11875,
2010-06-28, 02:06:05,VALID,1008.73,VALID,0,VALID,101.628,VALID,0,VALID,24.3194,VALID,297,VALID,1.16094,
2010-06-28, 02:07:05,VALID,1008.76,VALID,0,VALID,101.651,VALID,0,VALID,24.2981,VALID,289,VALID,1.10195,
2010-06-28, 02:08:05,VALID,1008.77,VALID,0,VALID,101.674,VALID,0,VALID,24.2981,VALID,273,VALID,1.53437,
2010-06-28, 02:09:05,VALID,1008.77,VALID,0,VALID,101.72,VALID,0,VALID,24.2805,VALID,243,VALID,1.13281,
2010-06-28, 02:10:05,VALID,1008.75,VALID,0,VALID,101.728,VALID,0,VALID,24.2805,VALID,285,VALID,1.16953,
2010-06-28, 02:11:05,VALID,1008.73,VALID,0,VALID,101.735,VALID,0,VALID,24.2396,VALID,213,VALID,0.404297,
2010-06-28, 02:12:05,VALID,1008.73,VALID,0,VALID,101.743,VALID,0,VALID,24.2591,VALID,249,VALID,0.163672,
2010-06-28, 02:13:05,VALID,1008.72,VALID,0,VALID,101.75,VALID,0,VALID,24.2202,VALID,302,VALID,0.677734,
2010-06-28, 02:14:05,VALID,1008.71,VALID,0,VALID,101.773,VALID,0,VALID,24.2415,VALID,294,VALID,0.596094,
2010-06-28, 02:15:05,VALID,1008.73,VALID,0,VALID,101.773,VALID,0,VALID,24.222,VALID,3,VALID,0,
2010-06-28, 02:16:05,VALID,1008.74,VALID,0,VALID,101.75,VALID,0,VALID,24.2415,VALID,358,VALID,0.112109,
2010-06-28, 02:17:05,VALID,1008.77,VALID,0,VALID,101.758,VALID,0,VALID,24.2415,VALID,335,VALID,0.245703,
2010-06-28, 02:18:05,VALID,1008.75,VALID,0,VALID,101.758,VALID,0.105969,VALID,24.2396,VALID,335,VALID,0,
2010-06-28, 02:19:05,VALID,1008.75,VALID,0,VALID,101.72,VALID,0.105969,VALID,24.2396,VALID,335,VALID,0,
2010-06-28, 02:20:05,VALID,1008.72,VALID,0,VALID,101.712,VALID,0,VALID,24.2396,VALID,335,VALID,0.0417969,
2010-06-28, 02:21:05,VALID,1008.68,VALID,0,VALID,101.682,VALID,0.105969,VALID,24.2786,VALID,335,VALID,0,
2010-06-28, 02:22:05,VALID,1008.68,VALID,0,VALID,101.72,VALID,0,VALID,24.2396,VALID,335,VALID,0.167187,
2010-06-28, 02:23:05,VALID,1008.62,VALID,0,VALID,101.72,VALID,0.105969,VALID,24.2183,VALID,335,VALID,0,
2010-06-28, 02:24:05,VALID,1008.63,VALID,0,VALID,101.743,VALID,0.105969,VALID,24.2202,VALID,335,VALID,0.383984,
2010-06-28, 02:25:05,VALID,1008.62,VALID,0,VALID,101.72,VALID,0,VALID,24.2183,VALID,335,VALID,0.375391,
2010-06-28, 02:26:05,VALID,1008.62,VALID,0,VALID,101.697,VALID,0,VALID,24.2378,VALID,335,VALID,0.2375,
2010-06-28, 02:27:05,VALID,1008.66,VALID,0,VALID,101.697,VALID,0.105969,VALID,24.2591,VALID,335,VALID,0.366016,
2010-06-28, 02:28:05,VALID,1008.64,VALID,0,VALID,101.712,VALID,0.211938,VALID,24.2378,VALID,335,VALID,0.309375,
2010-06-28, 02:29:05,VALID,1008.65,VALID,0,VALID,101.712,VALID,0.105969,VALID,24.2183,VALID,335,VALID,0,
2010-06-28, 02:30:05,VALID,1008.68,VALID,0,VALID,101.72,VALID,0.105969,VALID,24.2591,VALID,335,VALID,0,
2010-06-28, 02:31:05,VALID,1008.7,VALID,0,VALID,101.72,VALID,0.105969,VALID,24.2183,VALID,335,VALID,0,
2010-06-28, 02:32:05,VALID,1008.72,VALID,0,VALID,101.72,VALID,0.105969,VALID,24.1988,VALID,335,VALID,0,
2010-06-28, 02:33:05,VALID,1008.73,VALID,0,VALID,101.72,VALID,0.105969,VALID,24.1793,VALID,335,VALID,0,
2010-06-28, 02:34:05,VALID,1008.77,VALID,0,VALID,101.712,VALID,0.105969,VALID,24.1793,VALID,226,VALID,0.406641,
2010-06-28, 02:35:05,VALID,1008.78,VALID,0,VALID,101.743,VALID,0.105969,VALID,24.1793,VALID,226,VALID,0.476953,
2010-06-28, 02:36:05,VALID,1008.78,VALID,0,VALID,101.72,VALID,0.105969,VALID,24.1793,VALID,226,VALID,0.413672,
2010-06-28, 02:37:05,VALID,1008.76,VALID,0,VALID,101.72,VALID,0.105969,VALID,24.1793,VALID,226,VALID,0.221094,
2010-06-28, 02:38:05,VALID,1008.75,VALID,0,VALID,101.697,VALID,0.105969,VALID,24.2396,VALID,226,VALID,0,
2010-06-28, 02:39:05,VALID,1008.75,VALID,0,VALID,101.705,VALID,0.105969,VALID,24.2396,VALID,226,VALID,0.0363281,
2010-06-28, 02:40:05,VALID,1008.71,VALID,0,VALID,101.72,VALID,0.105969,VALID,24.1793,VALID,226,VALID,0.301953,
2010-06-28, 02:41:05,VALID,1008.71,VALID,0,VALID,101.735,VALID,0,VALID,24.1599,VALID,226,VALID,0.345703,
2010-06-28, 02:42:05,VALID,1008.72,VALID,0,VALID,101.728,VALID,0.105969,VALID,24.1793,VALID,226,VALID,0.432813,
2010-06-28, 02:43:05,VALID,1008.74,VALID,0,VALID,101.72,VALID,0.105969,VALID,24.2202,VALID,225,VALID,0.469531,
2010-06-28, 02:44:05,VALID,1008.73,VALID,0,VALID,101.75,VALID,0.105969,VALID,24.1793,VALID,225,VALID,0.481641,
2010-06-28, 02:45:05,VALID,1008.76,VALID,0,VALID,101.728,VALID,0.105969,VALID,24.1988,VALID,225,VALID,0.574609,
2010-06-28, 02:46:04,VALID,1008.79,VALID,0,VALID,101.75,VALID,0,VALID,24.2007,VALID,213,VALID,0.562109,
2010-06-28, 02:47:04,VALID,1008.79,VALID,0,VALID,101.743,VALID,0.105969,VALID,24.1988,VALID,213,VALID,0.473828,
2010-06-28, 02:48:04,VALID,1008.82,VALID,0,VALID,101.705,VALID,0.105969,VALID,24.2591,VALID,213,VALID,0.179688,
2010-06-28, 02:49:04,VALID,1008.84,VALID,0,VALID,101.697,VALID,0,VALID,24.2378,VALID,213,VALID,0,
2010-06-28, 02:50:04,VALID,1008.83,VALID,0,VALID,101.697,VALID,0,VALID,24.2573,VALID,213,VALID,0,
2010-06-28, 02:51:04,VALID,1008.86,VALID,0,VALID,101.689,VALID,0,VALID,24.2786,VALID,213,VALID,0,
2010-06-28, 02:52:04,VALID,1008.86,VALID,0,VALID,101.712,VALID,0,VALID,24.2591,VALID,213,VALID,0,
2010-06-28, 02:53:04,VALID,1008.84,VALID,0,VALID,101.743,VALID,0.105969,VALID,24.2591,VALID,213,VALID,0,
2010-06-28, 02:54:04,VALID,1008.84,VALID,0,VALID,101.743,VALID,0.105969,VALID,24.2378,VALID,213,VALID,0.31875,
2010-06-28, 02:55:04,VALID,1008.85,VALID,0,VALID,101.705,VALID,0.105969,VALID,24.2786,VALID,213,VALID,0.184375,
2010-06-28, 02:56:04,VALID,1008.84,VALID,0,VALID,101.735,VALID,0.105969,VALID,24.2573,VALID,213,VALID,0,
2010-06-28, 02:57:04,VALID,1008.86,VALID,0,VALID,101.728,VALID,0.105969,VALID,24.2981,VALID,213,VALID,0,
2010-06-28, 02:58:04,VALID,1008.83,VALID,0,VALID,101.728,VALID,0.105969,VALID,24.2981,VALID,212,VALID,0,
2010-06-28, 02:59:04,VALID,1008.87,VALID,0,VALID,101.766,VALID,0.105969,VALID,24.2573,VALID,217,VALID,0.467969,
2010-06-28, 03:00:04,VALID,1008.88,VALID,0,VALID,101.819,VALID,0.105969,VALID,24.2378,VALID,210,VALID,0.63125,
2010-06-28, 03:01:04,VALID,1008.91,VALID,0,VALID,101.804,VALID,0.105969,VALID,24.2378,VALID,208,VALID,0.635156,
2010-06-28, 03:02:04,VALID,1008.9,VALID,0,VALID,101.827,VALID,0.105969,VALID,24.2378,VALID,200,VALID,0.689844,
2010-06-28, 03:03:04,VALID,1008.89,VALID,0,VALID,101.827,VALID,0.105969,VALID,24.2573,VALID,196,VALID,0.523828,
2010-06-28, 03:04:04,VALID,1008.85,VALID,0,VALID,101.872,VALID,0.105969,VALID,24.2202,VALID,181,VALID,0.692187,
2010-06-28, 03:05:04,VALID,1008.83,VALID,0,VALID,101.872,VALID,0.105969,VALID,24.2183,VALID,182,VALID,0.541797,
2010-06-28, 03:06:04,VALID,1008.81,VALID,0,VALID,101.903,VALID,0.105969,VALID,24.1988,VALID,194,VALID,0.899219,
2010-06-28, 03:07:04,VALID,1008.76,VALID,0,VALID,101.941,VALID,0.105969,VALID,24.1988,VALID,197,VALID,0.762891,
2010-06-28, 03:08:04,VALID,1008.77,VALID,0,VALID,101.888,VALID,0.105969,VALID,24.2183,VALID,191,VALID,0.522266,
2010-06-28, 03:09:04,VALID,1008.76,VALID,0,VALID,101.911,VALID,0.105969,VALID,24.1988,VALID,185,VALID,0.676953,
2010-06-28, 03:10:04,VALID,1008.74,VALID,0,VALID,101.956,VALID,0.105969,VALID,24.1988,VALID,185,VALID,0.660547,
2010-06-28, 03:11:04,VALID,1008.74,VALID,0,VALID,101.956,VALID,0.105969,VALID,24.2007,VALID,185,VALID,0.29375,
2010-06-28, 03:12:04,VALID,1008.79,VALID,0,VALID,101.933,VALID,0.105969,VALID,24.2396,VALID,185,VALID,0,
2010-06-28, 03:13:04,VALID,1008.78,VALID,0,VALID,101.926,VALID,0.105969,VALID,24.2396,VALID,185,VALID,0,
2010-06-28, 03:14:04,VALID,1008.8,VALID,0,VALID,101.926,VALID,0.105969,VALID,24.2183,VALID,185,VALID,0,
2010-06-28, 03:15:04,VALID,1008.81,VALID,0,VALID,101.941,VALID,0.105969,VALID,24.2183,VALID,185,VALID,0,
2010-06-28, 03:16:04,VALID,1008.81,VALID,0,VALID,101.956,VALID,0.105969,VALID,24.2202,VALID,185,VALID,0,
2010-06-28, 03:17:04,VALID,1008.79,VALID,0,VALID,101.979,VALID,0.105969,VALID,24.1988,VALID,185,VALID,0,
2010-06-28, 03:18:04,VALID,1008.76,VALID,0,VALID,101.979,VALID,0,VALID,24.1812,VALID,185,VALID,0.148047,
2010-06-28, 03:19:04,VALID,1008.72,VALID,0,VALID,101.972,VALID,0,VALID,24.2007,VALID,185,VALID,0.230078,
2010-06-28, 03:20:04,VALID,1008.7,VALID,0,VALID,101.964,VALID,0,VALID,24.2202,VALID,185,VALID,0,
2010-06-28, 03:21:04,VALID,1008.68,VALID,0,VALID,102.01,VALID,0,VALID,24.1812,VALID,261,VALID,0.399609,
2010-06-28, 03:22:04,VALID,1008.65,VALID,0,VALID,102.01,VALID,0,VALID,24.1793,VALID,241,VALID,0.494141,
2010-06-28, 03:23:04,VALID,1008.63,VALID,0,VALID,102.04,VALID,0,VALID,24.2007,VALID,215,VALID,0.5,
2010-06-28, 03:24:04,VALID,1008.57,VALID,0,VALID,102.04,VALID,0.105969,VALID,24.2007,VALID,215,VALID,0.292578,
2010-06-28, 03:25:04,VALID,1008.59,VALID,0,VALID,102.033,VALID,0,VALID,24.2202,VALID,215,VALID,0.594531,
2010-06-28, 03:26:04,VALID,1008.55,VALID,0,VALID,102.025,VALID,0,VALID,24.2202,VALID,215,VALID,0.523828,
2010-06-28, 03:27:04,VALID,1008.54,VALID,0,VALID,102.048,VALID,0.105969,VALID,24.2183,VALID,215,VALID,0.30625,
2010-06-28, 03:28:04,VALID,1008.51,VALID,0,VALID,102.025,VALID,0,VALID,24.2591,VALID,215,VALID,0,
2010-06-28, 03:29:04,VALID,1008.49,VALID,0,VALID,102.025,VALID,0,VALID,24.2591,VALID,215,VALID,0,
2010-06-28, 03:30:04,VALID,1008.5,VALID,0,VALID,102.04,VALID,0,VALID,24.2591,VALID,215,VALID,0.0476562,
2010-06-28, 03:31:04,VALID,1008.48,VALID,0,VALID,102.094,VALID,0,VALID,24.2183,VALID,274,VALID,0.480078,
2010-06-28, 03:32:04,VALID,1008.46,VALID,0,VALID,102.101,VALID,0,VALID,24.2396,VALID,360,VALID,0.208203,
2010-06-28, 03:33:04,VALID,1008.47,VALID,0,VALID,102.124,VALID,0,VALID,24.1988,VALID,360,VALID,0.141016,
2010-06-28, 03:34:04,VALID,1008.45,VALID,0,VALID,102.086,VALID,0,VALID,24.1988,VALID,360,VALID,0,
2010-06-28, 03:35:04,VALID,1008.44,VALID,0,VALID,102.078,VALID,0,VALID,24.2202,VALID,360,VALID,0,
2010-06-28, 03:36:04,VALID,1008.42,VALID,0,VALID,102.055,VALID,0,VALID,24.1988,VALID,360,VALID,0.125391,
2010-06-28, 03:37:04,VALID,1008.44,VALID,0,VALID,102.048,VALID,0,VALID,24.2202,VALID,360,VALID,0.457031,
2010-06-28, 03:38:04,VALID,1008.4,VALID,0,VALID,102.048,VALID,0,VALID,24.1793,VALID,360,VALID,0.692969,
2010-06-28, 03:39:04,VALID,1008.41,VALID,0,VALID,102.086,VALID,0.105969,VALID,24.1812,VALID,125,VALID,0.629687,
2010-06-28, 03:40:04,VALID,1008.4,VALID,0,VALID,102.109,VALID,0,VALID,24.1617,VALID,125,VALID,0.514453,
2010-06-28, 03:41:04,VALID,1008.42,VALID,0,VALID,102.109,VALID,0,VALID,24.1617,VALID,125,VALID,0.529688,
2010-06-28, 03:42:04,VALID,1008.4,VALID,0,VALID,102.109,VALID,0.105969,VALID,24.1617,VALID,125,VALID,0.520703,